Kalmar, Sweden

8:22 AM CET on February 08, 2016 (GMT +0100)
Kalmar

Weather History for ESMQ - July, 2013

Change the Weather History Date:

Wednesday, July 17, 2013

  Actual Average Record
Temperature  
Mean Temperature 70 °F -  
Max Temperature 80 °F - - ()
Min Temperature 59 °F - - ()
Cooling Degree Days 4    
Growing Degree Days 20 (Base 50)    
Moisture  
Dew Point 59 °F    
Average Humidity 69    
Maximum Humidity 88    
Minimum Humidity 44    
Precipitation  
Precipitation 0.00 in - - ()
Sea Level Pressure  
Sea Level Pressure 30.05 in    
Wind  
Wind Speed 7 mph ()    
Max Wind Speed 12 mph    
Max Gust Speed -    
Visibility 6.2 miles    
Events      
T = Trace of Precipitation, MM = Missing Value Source: Averaged Metar Reports

Daily Weather History Graph

Daily Weather History Graph

Search for Another Location

Airport or City:

Trip Planner

Search our weather history database for the weather conditions in past years. The results will help you decide how hot, cold, wet, or windy it might be!

Date:

Astronomy

Jul. 17, 2013 Rise Set
Actual Time 4:27 AM CEST 9:32 PM CEST
Civil Twilight 3:30 AM CEST 10:30 PM CEST
Nautical Twilight 1:16 AM CEST 12:32 AM CEST
Astronomical Twilight Sun does not rise Sun does not rise
Moon 3:40 PM CEST (7/17) No Moon Set
Length of Visible Light 18h 59m
Length of Day
17h 04m
Waxing Gibbous, 64% of the Moon is Illuminated
Jul 17
Waxing Gibbous
Jul 22
Full
Jul 29
Last Quarter
Aug 6
New
Aug 14
First Quarter

Hourly Weather History & Observations

Time (CEST) Temp. Heat Index Dew Point Humidity Pressure Visibility Wind Dir Wind Speed Gust Speed Precip Events Conditions
12:20 AM 64.4 °F - 55.4 °F 73% 30.04 in 6.2 mi West 11.5 mph - N/A   Unknown
12:50 AM 62.6 °F - 55.4 °F 77% 30.04 in 6.2 mi West 9.2 mph - N/A   Unknown
1:20 AM 60.8 °F - 55.4 °F 82% 30.04 in 6.2 mi West 6.9 mph - N/A   Unknown
1:50 AM 60.8 °F - 55.4 °F 82% 30.04 in 6.2 mi West 5.8 mph - N/A   Unknown
2:20 AM 60.8 °F - 55.4 °F 82% 30.04 in 6.2 mi West 3.5 mph - N/A   Unknown
2:50 AM 59.0 °F - 55.4 °F 88% 30.04 in 6.2 mi West 3.5 mph - N/A   Unknown
3:20 AM 59.0 °F - 55.4 °F 88% 30.04 in 6.2 mi West 9.2 mph - N/A   Unknown
3:50 AM 59.0 °F - 55.4 °F 88% 30.04 in 6.2 mi West 5.8 mph - N/A   Unknown
4:20 AM 59.0 °F - 55.4 °F 88% 30.04 in 6.2 mi West 4.6 mph - N/A   Unknown
4:50 AM 59.0 °F - 55.4 °F 88% 30.04 in 6.2 mi West 5.8 mph - N/A   Unknown
5:20 AM 59.0 °F - 55.4 °F 88% 30.04 in 6.2 mi West 4.6 mph - N/A   Unknown
5:50 AM 59.0 °F - 55.4 °F 88% 30.04 in 6.2 mi West 5.8 mph - N/A   Unknown
6:20 AM 60.8 °F - 55.4 °F 82% 30.04 in 6.2 mi West 9.2 mph - N/A   Unknown
6:50 AM 60.8 °F - 57.2 °F 88% 30.04 in - West 9.2 mph - N/A   Clear
7:20 AM 62.6 °F - 57.2 °F 82% 30.06 in - WNW 9.2 mph - N/A   Clear
7:50 AM 64.4 °F - 57.2 °F 77% 30.06 in - WNW 6.9 mph - N/A   Clear
8:20 AM 66.2 °F - 57.2 °F 73% 30.06 in - WNW 8.1 mph - N/A   Clear
8:50 AM 68.0 °F - 57.2 °F 68% 30.06 in - NW 8.1 mph - N/A   Clear
9:20 AM 68.0 °F - 59.0 °F 73% 30.06 in - WNW 5.8 mph - N/A   Clear
9:50 AM 69.8 °F - 59.0 °F 68% 30.06 in - WSW 4.6 mph - N/A   Clear
10:20 AM 71.6 °F - 60.8 °F 69% 30.06 in - WSW 5.8 mph - N/A   Clear
10:50 AM 73.4 °F - 60.8 °F 65% 30.06 in - West 5.8 mph - N/A   Clear
11:20 AM 73.4 °F - 60.8 °F 65% 30.06 in - SW 4.6 mph - N/A   Clear
11:50 AM 75.2 °F - 59.0 °F 57% 30.06 in - WSW 5.8 mph - N/A   Clear
12:20 PM 77.0 °F - 59.0 °F 54% 30.06 in - West 8.1 mph - N/A   Clear
12:50 PM 77.0 °F - 59.0 °F 54% 30.06 in 6.2 mi West 9.2 mph - N/A   Partly Cloudy
1:20 PM 77.0 °F - 59.0 °F 54% 30.06 in 6.2 mi West 10.4 mph - N/A   Scattered Clouds
1:50 PM 80.6 °F 80.8 °F 57.2 °F 45% 30.06 in - WNW 6.9 mph - N/A   Clear
2:20 PM 78.8 °F - 55.4 °F 44% 30.06 in - Variable 4.6 mph - N/A   Clear
2:50 PM 75.2 °F - 62.6 °F 65% 30.06 in - SSE 8.1 mph - N/A   Clear
3:20 PM 75.2 °F - 62.6 °F 65% 30.06 in - SSE 8.1 mph - N/A   Clear
3:50 PM 75.2 °F - 62.6 °F 65% 30.06 in - SSE 8.1 mph - N/A   Clear
4:20 PM 75.2 °F - 62.6 °F 65% 30.04 in - South 9.2 mph - N/A   Clear
4:50 PM 75.2 °F - 62.6 °F 65% 30.04 in - South 8.1 mph - N/A   Clear
5:20 PM 77.0 °F - 62.6 °F 61% 30.04 in - SSE 6.9 mph - N/A   Clear
5:50 PM 75.2 °F - 64.4 °F 69% 30.04 in - SSE 6.9 mph - N/A   Clear
6:20 PM 75.2 °F - 62.6 °F 65% 30.04 in - SSE 5.8 mph - N/A   Clear
6:50 PM 77.0 °F - 64.4 °F 65% 30.04 in - SSE 5.8 mph - N/A   Clear
7:20 PM 78.8 °F - 59.0 °F 51% 30.04 in 6.2 mi South 3.5 mph - N/A   Unknown
7:50 PM 78.8 °F - 59.0 °F 51% 30.04 in 6.2 mi South 3.5 mph - N/A   Unknown
8:20 PM 77.0 °F - 59.0 °F 54% 30.04 in 6.2 mi WSW 5.8 mph - N/A   Partly Cloudy
8:50 PM 77.0 °F - 59.0 °F 54% 30.04 in 6.2 mi West 8.1 mph - N/A   Partly Cloudy
9:20 PM 75.2 °F - 59.0 °F 57% 30.04 in 6.2 mi WSW 5.8 mph - N/A   Partly Cloudy
9:50 PM 73.4 °F - 59.0 °F 61% 30.06 in 6.2 mi West 6.9 mph - N/A   Unknown
10:20 PM 71.6 °F - 59.0 °F 64% 30.06 in 6.2 mi West 8.1 mph - N/A   Unknown
10:50 PM 71.6 °F - 59.0 °F 64% 30.06 in 6.2 mi West 8.1 mph - N/A   Unknown
11:20 PM 69.8 °F - 57.2 °F 64% 30.06 in 6.2 mi West 8.1 mph - N/A   Unknown
11:50 PM 68.0 °F - 57.2 °F 68% 30.06 in 6.2 mi West 10.4 mph - N/A   Unknown